Regional Weather Roundup
Issued by NWS

Home | Current Version | Previous Version | Text Only | Print | Product List | Glossary Off
Versions: 1 2 3 4 5 6 7 8 9 10 11 12 13 14 15 16 17 18 19 20 21 22 23 24 25 26 27 28 29 30 31 32 33 34 35 36 37 38 39 40 41 42 43 44 45 46 47 48 49 50

000
ASUS43 KLOT 261604
RWRIL

ILLINOIS REGIONAL WEATHER ROUNDUP
NATIONAL WEATHER SERVICE CHICAGO/ROMEOVILLE IL
1100 AM CDT THU APR 26 2018

NOTE: "FAIR" INDICATES FEW OR NO CLOUDS BELOW 12,000 FEET WITH NO
SIGNIFICANT WEATHER AND/OR OBSTRUCTIONS TO VISIBILITY.

* THESE STATIONS ARE NOT UNDER NWS QUALITY CONTROL. THEY ALSO MAY NOT
  REPORT WEATHER SUCH AS PRECIPITATION OR FOG.

ILZ001-002-007-009-015-016-024-261700-
NORTHWEST ILLINOIS

CITY           SKY/WX    TMP DP  RH WIND       PRES   REMARKS
MOLINE         FAIR      60  37  42 VRB3      29.95S
STERLING*      FAIR      59  33  37 VRB7      29.96F
SAVANNA*       FAIR      56  35  44 S6        29.96S
$$

ILZ003-004-008-010-011-017-018-261700-
NORTH CENTRAL ILLINOIS

CITY           SKY/WX    TMP DP  RH WIND       PRES   REMARKS
ROCKFORD       CLOUDY    57  31  37 SW7       29.96F
FREEPORT*      FAIR      57  33  41 SW12      29.97S
ROCHELLE*      FAIR      58  31  36 SW7       29.96F
DE KALB*       FAIR      57  32  38 S5        29.97S
PERU*          FAIR      59  32  35 S6        29.98S
$$

ILZ005-006-012>014-019>023-261700-
NORTHEAST ILLINOIS

CITY           SKY/WX    TMP DP  RH WIND       PRES   REMARKS
CHICAGO-OHARE  PTSUNNY   57  28  33 CALM      29.96R
CHICAGO-MIDWAY PTSUNNY   55  26  32 CALM      29.97S
AURORA         FAIR      58  30  34 CALM      29.97S
LANSING*       FAIR      54  34  47 E3        29.97F
JOLIET*        FAIR      57  29  34 CALM      29.97S
WAUKEGAN       FAIR      55  33  43 SE9       29.95S
DUPAGE AIRPORT FAIR      57  29  34 VRB5      29.96S
KANKAKEE*      FAIR      55  32  42 SE3       29.99S
WHEELING       FAIR      58  29  33 S5        29.97S
MORRIS*        FAIR      57  29  35 E5        29.97S
ROMEOVILLE*    FAIR      58  30  35 CALM      29.97F
NORTHERLY ISL    N/A     45  36  70 E6          N/A
$$

LMZ740>746-261700-
SOUTHERN LAKE MICHIGAN

STATION/POSITION SKY/WX   TEMP    WIND        PRES    VSBY  WAVE
                          AIR SEA DIR/SP/G                  HT/PER
                          (F)     (DEG/KT/KT) (MB)    (MI)  (FT/S)
HARRISON CRIB              43     140/  8/  8   N/A
BURNHAM HARBOR             45     100/  4/  6   N/A
CALUMET HARBOR             43      70/  5/  9 1014.8R
BURNS HARBOR               40      20/  2/  4 1015.9S
MICHIGAN CITY              42     320/  5/  6   N/A
ST. JOSEPH                 41 43   20/  6/  6 1016.0R         1/ 5
$$

ILZ025>027-034>036-040-047-049-050-058-095>099-261700-
WEST-CENTRAL ILLINOIS

CITY           SKY/WX    TMP DP  RH WIND       PRES   REMARKS
QUINCY         SUNNY     63  35  35 VRB3      29.97S
GALESBURG*     FAIR      63  42  45 S8        29.97F
MACOMB*        CLOUDY    60  37  42 S3        29.99F
JACKSONVILLE*  SUNNY     59  33  37 CALM      29.97F
PITTSFIELD*    SUNNY     61  36  38 CALM      29.99S
$$

ILZ028>032-037-038-041>044-048-051>054-059>061-261700-
CENTRAL ILLINOIS

CITY           SKY/WX    TMP DP  RH WIND       PRES   REMARKS
PONTIAC        FAIR      57  31  37 CALM      29.98F
BLOOMINGTON    FAIR      59  33  37 CALM      29.99S
DECATUR        FAIR      59  34  39 E5        29.97F
PEORIA           N/A     58  36  43 S6        29.98S
LACON*         FAIR      59  34  38 W6        29.97S
LINCOLN*       FAIR      59  37  43 S5        29.98F
SPRINGFIELD    FAIR      61  37  41 E5        29.98F
TAYLORVILLE    FAIR      58  34  41 CALM      29.98S
$$

ILZ033-039-045-046-055>057-062-063-261700-
EAST-CENTRAL ILLINOIS

CITY           SKY/WX    TMP DP  RH WIND       PRES   REMARKS
CHAMPAIGN      FAIR      58  32  37 VRB6      29.97F
DANVILLE*      FAIR      53  36  53 N5        29.95F
RANTOUL*       FAIR      57  33  40 N6        29.97F
MATTOON        FAIR      60  33  36 N14       29.95F
PARIS*         FAIR      56  37  48 NW9       29.97F
$$

ILZ079-100>102-261700-
SOUTHWEST ILLINOIS

CITY           SKY/WX    TMP DP  RH WIND       PRES   REMARKS
CAHOKIA*       SUNNY     60  35  39 VRB3      29.97F
SPARTA*        PTSUNNY   56  44  66 NE5       29.98S
$$

ILZ064>066-069>071-074>076-080>082-084>086-088>090-092>094-261700-
SOUTH-CENTRAL ILLINOIS

CITY           SKY/WX    TMP DP  RH WIND       PRES   REMARKS
CARBONDALE     CLOUDY    55  42  61 NE7       29.95S
CAIRO*         CLOUDY    57  39  51 NE10      29.92R
EFFINGHAM*     FAIR      60  37  41 N7        29.97F
MARION         CLOUDY    52  39  62 N7        29.95S
MT. VERNON     FAIR      61  40  45 NE10      29.95F
CENTRALIA*     CLOUDY    61  38  43 NE5       29.95F
SALEM*         FAIR      61  38  41 N6        29.96S
METROPOLIS*    CLOUDY    57  40  52 NE8       29.92F
$$

ILZ067-068-072-073-078-083-087-091-261700-
SOUTHEAST ILLINOIS

CITY           SKY/WX    TMP DP  RH WIND       PRES   REMARKS
LAWRENCEVILLE  FAIR      63  30  28 MISG      29.95S
FLORA*         FAIR      60  38  44 N5        29.97S
FAIRFIELD*     FAIR      60  37  42 N7        29.94S
HARRISBURG*    PTSUNNY   56  44  65 N5        29.95F
ROBINSON*      FAIR      59  34  38 N12       29.96S
CARMI*         FAIR      60  38  44 NE7       29.93F
$$

ABBREVIATIONS USED IN REMARKS
   TC - TEMPERATURE IN CELSIUS
  WCI - WIND CHILL INDEX
   HX - HEAT INDEX
  VSB - VISIBILITY
$$





USA.gov is the U.S. government's official web portal to all federal, state and local government web resources and services.